Regional Weather Roundup
Issued by NWS

Home | Current Version | Previous Version | Text Only | Print | Product List | Glossary On
Versions: 1 2 3 4 5 6 7 8 9 10 11 12 13 14 15 16 17 18 19 20 21 22 23 24 25 26 27 28 29 30 31 32 33 34 35 36 37 38 39 40 41 42 43 44 45 46 47 48 49 50
000
ASCA44 KEWX 210020
RWRMX

LATIN AMERICA AND CARIBBEAN REGIONAL WEATHER ROUNDUP
NATIONAL WEATHER SERVICE AUSTIN/SAN ANTONIO TX
700 PM CDT SAT SEP 20 2014

NOTE: "FAIR" INDICATED FEW OR NO CLOUDS BELOW 12,000 FEET WITH NO
SIGNIFICANT WEATHER AND/OR OBSTRUCTIONS TO VISIBILITY.

BAJA CALIFORNIA

CITY           SKY/WX    TMP DP  RH WIND       PRES   REMARKS
LORETO         PTSUNNY   86  75  70 CALM      29.76S HX  95
LA PAZ           N/A    N/A N/A N/A MISG        N/A
MEXICALI       SUNNY    100  48  17 SE9       29.71  HX  97
S.J. DEL CABO  PTSUNNY   82  73  74 NE15      29.76F
TIJUANA        SUNNY     73  55  53 W12       29.92S

NORTHWESTERN MEXICO

CITY           SKY/WX    TMP DP  RH WIND       PRES   REMARKS
CULIACAN       MOSUNNY   88  79  74 W12       29.80  HX 102
DURANGO        PTSUNNY   75  52  43 N5        30.10R
GUAYMAS        MOSUNNY   90  79  70 SW10      29.72  HX 105
HERMOSILLO     MOSUNNY   95  70  43 SW6       29.80F HX 101
CD. JUAREZ     MOSUNNY   90  64  43 CALM      29.95  HX  91
LOS MOCHIS     MOSUNNY   86  70  58 S7        29.80R HX  90
OBREGON        PTSUNNY   90  73  58 SW9       29.75  HX  98

NORTHEASTERN MEXICO

CITY           SKY/WX    TMP DP  RH WIND       PRES   REMARKS
CHIHUAHUA      PTSUNNY   82  59  44 N8        30.03
MATAMOROS      MOCLDY    82  81  94 CALM      29.87  HX  95
MONTERREY      MOCLDY    77  75  94 E5        29.88S
NUEVO LAREDO   MOCLDY    79  77  94 SE7       29.87
PIEDRAS NEGRAS PTCLDY    90  73  58 E7        29.89R HX  98
REYNOSA        PTCLDY    79  73  83 CALM      29.85
SALTILLO       MOCLDY    77  64  65 NE9       30.06S
TORREON        PTSUNNY   86  57  37 N3        29.96S
CD. VICTORIA   MOCLDY    82  73  74 N5        29.86

WESTERN MEXICO

CITY           SKY/WX    TMP DP  RH WIND       PRES   REMARKS
AGUASCALIENTES CLOUDY    79  43  27 SW9       30.12
COLIMA         PTSUNNY   77  66  69 CALM      29.92S
GUADALAJARA    PTSUNNY   79  57  47 SW6       30.06
MANZANILLO     PTSUNNY   84  77  79 W12       29.75S HX  94
MAZATLAN       MOSUNNY   82  70  65 S12       29.78S
P. VALLARTA    PTSUNNY   86  68  54 W3        29.80S
URUAPAN        PTSUNNY   72  66  83 CALM      30.08S
ZACATECAS      PTSUNNY   79  45  29 W12       30.15

CENTRAL MEXICO

CITY           SKY/WX    TMP DP  RH WIND       PRES   REMARKS
CUERNAVACA     MOCLDY    79  59  50 CALM      29.97R
MEXICO CITY    MOCLDY    70  50  49 N16         N/A
MORELIA        MOCLDY    75  61  60 N3        30.12
POZA RICA      CLEAR     88  73  62 E12       29.80S HX  96
PUEBLA         LGT RAIN  68  64  88 CALM      30.25R
QUERETARO      MOCLDY    72  55  56 N9        30.20R
S. LUIS POTOSI TSTM      61  59  94 NE14      30.17R
TAMPICO        MOCLDY    84  77  79 E12       29.80S HX  94
TOLUCA         MOCLDY    61  48  63 SE9       30.28R

SOUTHERN MEXICO

CITY           SKY/WX    TMP DP  RH WIND       PRES   REMARKS
ACAPULCO       PTCLDY    84  77  79 W10       29.77R HX  94
B. DE HUATULCO CLOUDY    77  72  83 CALM      29.85
OAXACA         CLOUDY    77  57  50 N7        30.06R
P. ESCONDIDO   MOCLDY    82  73  74 S7        29.94F
VERACRUZ       PTCLDY    84  75  74 E6        29.77R HX  92
ZIHUATANEJO    MOCLDY    84  75  74 W8        29.77R HX  92

YUCATAN PENINSULA

CITY           SKY/WX    TMP DP  RH WIND       PRES   REMARKS
CAMPECHE       MOCLDY    86  75  70 NW13      29.78R HX  95
CANCUN         CLOUDY    77  77 100 NE3       29.87S
CHETUMAL       MOCLDY    86  77  74 SE12      29.84R HX  97
CD. DEL CARMEN PTCLDY    86  79  79 N12       29.78  HX  99
COZUMEL        CLOUDY    77  77 100 E5        29.87S
MERIDA         CLOUDY    79  79 100 N5        29.84R
MINATITLAN     PTCLDY    86  73  66 N12       29.74  HX  93
TAPACHULA      PTCLDY    82  82 100 S6        29.84R HX  97
TUX. GUTIERREZ MOCLDY    82  73  74 CALM      29.84R
VILLAHERMOSA   MOCLDY    86  75  70 CALM      29.80R HX  95

CENTRAL AMERICA

CITY           SKY/WX    TMP DP  RH WIND       PRES   REMARKS
MANAGUA        PTCLDY    82  77  83 E16       29.83R HX  91

CARIBBEAN

CITY           SKY/WX    TMP DP  RH WIND       PRES   REMARKS
ARUBA          PTCLDY    84  75  74 E20       29.86R HX  92
CURACAO        PTCLDY    84  75  74 E16       29.86R HX  92
KINGSTON       PTCLDY    86  75  70 SE18      29.89R HX  95
NASSAU         MOCLDY    82  77  83 W5        29.95R HX  91
SAN JUAN       PTCLDY    82  75  78 NE12      29.99R
SANTO DOMINGO  MOCLDY    79  73  83 NE6       29.94R
ST. CROIX      CLEAR     82  75  78 E13       29.98
ST. KITTS      PTCLDY    82  77  83 E14       29.97S HX  91
ST. MAARTEN    PTCLDY    84  73  70 E15       29.97S HX  91

$$



USA.gov is the U.S. government's official web portal to all federal, state and local government web resources and services.